Simultaneous Nadir Overpasses (SNOs) Predictions

Prediction of SNOs between GOES-15 and NPP Satellite Orbit:

Table of predicted SNOs for the next 14.0 days since TLE Epoch: 6/8/2012
Index Date Time (GOES-15) GOES-15 Lat,Lon NPP Lat,Lon Distance(km) Time Diff (sec)
1 06/08/2012 22:10:04 0.09,-135.22 0.94,-131.46 429.48 80
2 06/10/2012 10:29:11 -0.12,-135.18 0.20,-136.73 175.25 80
3 06/11/2012 10:13:04 -0.11,-135.16 -0.77,-132.18 339.18 80
4 06/12/2012 22:32:19 0.13,-135.12 -0.37,-137.49 269.37 80
5 06/13/2012 22:16:13 0.12,-135.10 0.61,-132.95 244.95 80
6 06/15/2012 10:35:19 -0.15,-135.05 0.53,-138.22 360.31 80
7 06/16/2012 10:19:13 -0.14,-135.02 -0.45,-133.68 153.36 80
8 06/17/2012 22:38:27 0.17,-134.97 -0.73,-138.98 456.85 80
9 06/18/2012 22:22:21
